Location: ActonStarParty
(42.4766°N, 71.4538°W)
Time: 06:03:20
(UTC-05:00)

ISS - Visible Passes

Search period start: 06 March 2015 00:00
Search period end: 16 March 2015 01:00
Orbit: 396 x 408 km, 51.6° (Epoch: 06 March)

Date Brightness Start Highest point End Pass type
(mag) Time Alt. Az. Time Alt. Az. Time Alt. Az.
07 Mar 0.0 05:41:59 10° SE 05:42:47 11° SE 05:43:42 10° ESE visible
09 Mar -1.1 06:30:22 10° SSW 06:33:02 24° SE 06:35:45 10° E visible
10 Mar -0.4 05:38:40 10° SSE 05:40:13 13° SE 05:41:51 10° ESE visible
11 Mar -2.8 06:20:07 10° SW 06:23:17 57° SE 06:26:28 10° ENE visible
12 Mar -1.7 05:28:56 20° S 05:30:19 29° SE 05:33:11 10° ENE visible
13 Mar -0.4 04:38:18 14° ESE 04:38:18 14° ESE 04:39:27 10° E visible
13 Mar -3.3 06:10:55 15° WSW 06:13:31 64° NNW 06:16:45 10° NE visible
14 Mar -3.3 05:20:07 63° S 05:20:24 68° SE 05:23:38 10° ENE visible
15 Mar -0.5 04:29:12 18° E 04:29:12 18° E 04:30:20 10° ENE visible
15 Mar -2.4 06:01:49 18° W 06:03:46 34° NNW 06:06:46 10° NE visible
